User: anonymous   Login
Location: Bothwell
(42.3833°S, 147.0000°E)
Time: 05:23:07
(UTC+10:00)
Language:

SEEDS - Orbit

View from above orbital plane
View from above orbital plane
View from above satellite
View from above satellite

Ground track
Ground track

The orbit data is extracted from the following two-line orbital elements,

1 32791U 08021J   22267.37362837  .00002381  00000-0  23345-3 0  9995
2 32791  97.6220 240.5522 0011501 214.0711 145.9772 14.93116583781950
Epoch (UTC): 24 September 2022 08:58:01
Eccentricity: 0.0011501
inclination: 97.6220°
perigee height: 580 km
apogee height: 596 km
right ascension of ascending node: 240.5522°
argument of perigee: 214.0711°
revolutions per day: 14.93116583
mean anomaly at epoch: 145.9772°
orbit number at epoch: 78195

The dashed part of the orbit path shows where the satellite is in the earth's shadow,  

DLR